COSMOS 2251 DEB, 35670

Orbit data source: Space-Track

COSMOS 2251 DEB, 35670 is space debris in LEO originally from a launch on Wed, 16 Jun 1993 UTC launched from the Plesetsk Missile And Space Complex (PKMTR). The debris from Iridium 33, an American commercial communications satellite, has been tracked extensively since its accidental collision with the defunct Russian satellite Cosmos 2251 in 2009. This event, occurring at high speed in low Earth orbit (LEO), generated thousands of pieces of space debris, significantly increasing the risk of further collisions. The Iridium 33 debris cloud has impacted space traffic management and orbital debris mitigation strategies, making it a subject of ongoing study in space situational awareness.

Loading next visibility...
Identifier
35670, 1993-036APM
Orbit
LEO
Country
Flag of CISCIS
Related business
Manufacturer
Unknown
Mission
Spacecraft
Bus & Motor
Unknown
Mass
Unknown
Launch date (UTC)
1993-06-16 (33 years ago)
Launch vehicle
Unknown
Launch site
Plesetsk Missile And Space Complex (PKMTR)
Object type
Payload
Rocket body
Debris
Shape & HBR
Unknown shape, 0.1 m
Radar Cross Section
Small (<0.1 m²)

Expand to show TLE details & history
Last TLE update: 16 hours ago

TLE from 16 hours ago
0 COSMOS 2251 DEB
1 35670U 93036APM 26073.78738748  .00027464  00000-0  23295-2 0  9998
2 35670  73.8912 237.0537 0033740 180.6887 179.4258 14.97386115891037
Epoch: 2026-03-14T18:53Z
TLE epoch observation values (Epoch: 2026-03-14T18:53:50.278Z)
Latitude
0.00004°
Longitude
141.19066°
Altitude
601.116 km
Speed
7.546 km/s
True Right ascension
15h 48m 12s
True Declination
0° 00' 00"
Sunlit
Object was in full shadow at epoch
Visualization orbit readout
Latitude
Unknown
Longitude
Unknown
Altitude
Unknown
Speed
Unknown
Apparent Right ascension
Unknown
Apparent Declination
Unknown
Sunlit
N/A
Visualization observer readout
Local Sidereal Time
15:50:06
Azimuth
Unknown
Elevation
Unknown
Doppler factor
Unknown
Orbital elements
Apogee altitude
595.997 km
Perigee altitude
549.094 km
Semi-major axis
6,950.683 km
Eccentricity
0.00337
Inclination
73.8912°
RAAN
237.0537°
Arg. of periapsis
180.6887°
True anomaly
179.42966°
Mean anomaly
179.4258°
Eccentric anomaly
179.42773°
Mean motion
3.74543 °/min
Orbital period
96.12 mins
BSTAR
0.0023295

Documentation

Showing up to 5 results
|